TimeEST,TemperatureF,Dew PointF,Humidity,Sea Level PressureIn,VisibilityMPH,Wind Direction,Wind SpeedMPH,Gust SpeedMPH,PrecipitationIn,Events,Conditions,WindDirDegrees,DateUTC
12:54 AM,32.0,26.1,79,30.11,7.0,Calm,Calm,-,N/A,,Clear,0,2013-12-20 05:54:00
1:54 AM,32.0,26.1,79,30.10,7.0,Calm,Calm,-,N/A,,Clear,0,2013-12-20 06:54:00
2:54 AM,32.0,25.0,75,30.10,7.0,Calm,Calm,-,N/A,,Clear,0,2013-12-20 07:54:00
3:54 AM,30.9,26.1,82,30.10,7.0,Calm,Calm,-,N/A,,Clear,0,2013-12-20 08:54:00
4:54 AM,30.9,25.0,79,30.09,7.0,Calm,Calm,-,N/A,,Clear,0,2013-12-20 09:54:00
5:54 AM,30.9,25.0,79,30.09,7.0,Calm,Calm,-,N/A,,Clear,0,2013-12-20 10:54:00
6:54 AM,30.0,25.0,82,30.10,6.0,Calm,Calm,-,N/A,,Haze,0,2013-12-20 11:54:00
7:54 AM,28.0,23.0,81,30.09,4.0,NW,3.5,-,N/A,,Haze,310,2013-12-20 12:54:00
8:54 AM,32.0,25.0,75,30.09,5.0,Calm,Calm,-,N/A,,Haze,0,2013-12-20 13:54:00
9:54 AM,34.0,27.0,75,30.08,5.0,NNW,3.5,-,N/A,,Haze,340,2013-12-20 14:54:00
10:54 AM,39.9,28.0,63,30.07,5.0,Calm,Calm,-,N/A,,Haze,0,2013-12-20 15:54:00
11:54 AM,44.1,28.9,55,30.04,6.0,Calm,Calm,-,N/A,,Haze,0,2013-12-20 16:54:00
12:54 PM,46.9,28.9,50,30.03,9.0,Calm,Calm,-,N/A,,Clear,0,2013-12-20 17:54:00
1:54 PM,48.9,28.0,44,30.00,10.0,Calm,Calm,-,N/A,,Partly Cloudy,0,2013-12-20 18:54:00
2:54 PM,48.9,28.9,46,29.99,10.0,Calm,Calm,-,N/A,,Overcast,0,2013-12-20 19:54:00
3:54 PM,48.9,28.0,44,30.00,10.0,Calm,Calm,-,N/A,,Mostly Cloudy,0,2013-12-20 20:54:00
4:54 PM,48.9,28.0,44,30.01,10.0,South,3.5,-,N/A,,Mostly Cloudy,170,2013-12-20 21:54:00
5:54 PM,48.0,28.9,48,30.01,10.0,South,3.5,-,N/A,,Overcast,190,2013-12-20 22:54:00
6:54 PM,42.1,30.0,62,30.02,10.0,Calm,Calm,-,N/A,,Overcast,0,2013-12-20 23:54:00
7:54 PM,39.9,30.9,70,30.03,10.0,Calm,Calm,-,N/A,,Scattered Clouds,0,2013-12-21 00:54:00
8:54 PM,39.0,30.9,73,30.02,10.0,NNW,4.6,-,N/A,,Mostly Cloudy,330,2013-12-21 01:54:00
9:54 PM,41.0,30.9,67,30.02,9.0,Calm,Calm,-,N/A,,Mostly Cloudy,0,2013-12-21 02:54:00
10:54 PM,39.9,30.9,70,30.01,9.0,Calm,Calm,-,0.00,,Mostly Cloudy,0,2013-12-21 03:54:00
11:54 PM,39.0,30.9,73,30.00,9.0,Calm,Calm,-,N/A,,Mostly Cloudy,0,2013-12-21 04:54:00